Location: St. Louis
(38.6270°N, 90.1994°W)
Time: 22:59:48
(UTC-06:00)

Vanguard 1 - Pass Details

Date: 02 December 2021
Orbit: 652 x 3830 km, 34.2° (Epoch: 21 January)

Event Time Altitude Azimuth Distance (km) Brightness Sun altitude
Rises 07:46:16 0° 284° (WNW) 7,017 13.8 6.7°
Reaches altitude 10° 07:53:20 10° 270° (W) 5,375 13.4 7.8°
Maximum altitude 08:02:12 19° 233° (SW) 3,731 12.9 9.2°
Drops below altitude 10° 08:08:34 10° 192° (SSW) 3,659 13.4 10.2°
Sets 08:12:08 0° 173° (S) 4,198 14.1 10.7°
